Time,TemperatureF,DewpointF,PressureIn,WindDirection,WindDirectionDegrees,WindSpeedMPH,WindSpeedGustMPH,Humidity,HourlyPrecipIn,Conditions,Clouds,dailyrainin,SoftwareType,DateUTC
2013-05-25 00:01:00,71.5,56.9,30.06,NNE,30,0.0,12.0,60,0.00,,,0.00,Wunderground v.1.13,2013-05-25 05:01:00,
2013-05-25 00:06:00,71.5,56.9,30.06,NNE,30,0.0,12.0,60,0.00,,,0.00,Wunderground v.1.13,2013-05-25 05:06:00,
2013-05-25 00:12:00,71.3,56.7,30.06,NNE,30,0.0,12.0,60,0.00,,,0.00,Wunderground v.1.13,2013-05-25 05:12:00,
2013-05-25 00:17:00,71.1,56.5,30.06,NNE,30,0.0,12.0,60,0.00,,,0.00,Wunderground v.1.13,2013-05-25 05:17:00,
2013-05-25 00:22:00,70.9,56.8,30.06,NNE,30,0.0,12.0,61,0.00,,,0.00,Wunderground v.1.13,2013-05-25 05:22:00,
2013-05-25 00:27:00,70.9,56.8,30.06,NNE,30,0.0,12.0,61,0.00,,,0.00,Wunderground v.1.13,2013-05-25 05:27:00,
2013-05-25 00:32:00,70.9,56.8,30.06,NNE,30,0.0,12.0,61,0.00,,,0.00,Wunderground v.1.13,2013-05-25 05:32:00,
2013-05-25 00:37:00,70.8,56.7,30.06,NNE,30,0.0,12.0,61,0.00,,,0.00,Wunderground v.1.13,2013-05-25 05:37:00,
2013-05-25 00:42:00,70.8,56.7,30.06,North,0,0.0,12.0,61,0.00,,,0.00,Wunderground v.1.13,2013-05-25 05:42:00,
2013-05-25 00:47:00,70.6,56.5,30.06,North,0,0.0,12.0,61,0.00,,,0.00,Wunderground v.1.13,2013-05-25 05:47:00,
2013-05-25 00:52:00,70.4,56.3,30.06,North,0,0.0,12.0,61,0.00,,,0.00,Wunderground v.1.13,2013-05-25 05:52:00,
2013-05-25 00:57:00,70.3,56.2,30.06,North,0,0.0,12.0,61,0.00,,,0.00,Wunderground v.1.13,2013-05-25 05:57:00,
2013-05-25 01:02:00,70.1,56.0,30.06,North,0,0.0,12.0,61,0.00,,,0.00,Wunderground v.1.13,2013-05-25 06:02:00,
2013-05-25 01:07:00,69.9,56.3,30.05,North,0,0.0,12.0,62,0.00,,,0.00,Wunderground v.1.13,2013-05-25 06:07:00,
2013-05-25 01:13:00,69.8,56.2,30.05,North,0,0.0,12.0,62,0.00,,,0.00,Wunderground v.1.13,2013-05-25 06:13:00,
2013-05-25 01:18:00,69.6,56.4,30.05,North,0,0.0,12.0,63,0.00,,,0.00,Wunderground v.1.13,2013-05-25 06:18:00,
2013-05-25 01:23:00,69.4,56.3,30.06,North,0,0.0,12.0,63,0.00,,,0.00,Wunderground v.1.13,2013-05-25 06:23:00,
2013-05-25 01:28:00,69.4,56.3,30.06,North,0,0.0,12.0,63,0.00,,,0.00,Wunderground v.1.13,2013-05-25 06:28:00,
2013-05-25 01:33:00,69.3,56.2,30.06,North,0,0.0,12.0,63,0.00,,,0.00,Wunderground v.1.13,2013-05-25 06:33:00,
2013-05-25 01:38:00,69.1,56.4,30.06,North,0,0.0,12.0,64,0.00,,,0.00,Wunderground v.1.13,2013-05-25 06:38:00,
2013-05-25 01:43:00,68.9,56.2,30.06,North,0,0.0,12.0,64,0.00,,,0.00,Wunderground v.1.13,2013-05-25 06:43:00,
2013-05-25 01:48:00,68.8,56.1,30.06,North,0,0.0,12.0,64,0.00,,,0.00,Wunderground v.1.13,2013-05-25 06:48:00,
2013-05-25 01:53:00,68.6,55.9,30.05,North,0,0.0,12.0,64,0.00,,,0.00,Wunderground v.1.13,2013-05-25 06:53:00,
2013-05-25 01:58:00,68.6,55.9,30.05,North,0,0.0,12.0,64,0.00,,,0.00,Wunderground v.1.13,2013-05-25 06:58:00,
2013-05-25 02:03:00,68.3,55.6,30.05,North,0,0.0,12.0,64,0.00,,,0.00,Wunderground v.1.13,2013-05-25 07:03:00,
2013-05-25 02:08:00,68.1,55.9,30.05,North,0,0.0,12.0,65,0.00,,,0.00,Wunderground v.1.13,2013-05-25 07:08:00,
2013-05-25 02:13:00,67.9,55.7,30.05,North,0,0.0,12.0,65,0.00,,,0.00,Wunderground v.1.13,2013-05-25 07:13:00,
2013-05-25 02:18:00,67.8,55.6,30.05,North,0,0.0,12.0,65,0.00,,,0.00,Wunderground v.1.13,2013-05-25 07:18:00,
2013-05-25 02:23:00,67.8,56.0,30.04,North,0,0.0,12.0,66,0.00,,,0.00,Wunderground v.1.13,2013-05-25 07:23:00,
2013-05-25 02:28:00,67.8,56.4,30.04,North,0,0.0,12.0,67,0.00,,,0.00,Wunderground v.1.13,2013-05-25 07:28:00,
2013-05-25 02:33:00,67.8,56.0,30.04,North,0,0.0,12.0,66,0.00,,,0.00,Wunderground v.1.13,2013-05-25 07:33:00,
2013-05-25 02:38:00,67.8,56.0,30.05,North,0,0.0,12.0,66,0.00,,,0.00,Wunderground v.1.13,2013-05-25 07:38:00,
2013-05-25 02:43:00,67.6,55.8,30.05,North,0,0.0,12.0,66,0.00,,,0.00,Wunderground v.1.13,2013-05-25 07:43:00,
2013-05-25 02:48:00,67.6,55.8,30.05,North,0,0.0,12.0,66,0.00,,,0.00,Wunderground v.1.13,2013-05-25 07:48:00,
2013-05-25 02:53:00,67.4,56.1,30.05,North,0,0.0,12.0,67,0.00,,,0.00,Wunderground v.1.13,2013-05-25 07:53:00,
2013-05-25 02:58:00,67.4,56.1,30.05,North,0,0.0,12.0,67,0.00,,,0.00,Wunderground v.1.13,2013-05-25 07:58:00,
2013-05-25 03:03:00,67.3,56.0,30.05,North,0,0.0,12.0,67,0.00,,,0.00,Wunderground v.1.13,2013-05-25 08:03:00,
2013-05-25 03:08:00,67.3,56.0,30.05,North,0,0.0,12.0,67,0.00,,,0.00,Wunderground v.1.13,2013-05-25 08:08:00,
2013-05-25 03:13:00,67.1,55.4,30.05,North,0,0.0,12.0,66,0.00,,,0.00,Wunderground v.1.13,2013-05-25 08:13:00,
2013-05-25 03:19:00,67.1,55.4,30.05,ENE,65,0.0,12.0,66,0.00,,,0.00,Wunderground v.1.13,2013-05-25 08:19:00,
2013-05-25 03:24:00,67.1,55.4,30.06,ENE,65,0.0,12.0,66,0.00,,,0.00,Wunderground v.1.13,2013-05-25 08:24:00,
2013-05-25 03:29:00,67.1,54.9,30.06,NE,37,0.0,12.0,65,0.00,,,0.00,Wunderground v.1.13,2013-05-25 08:29:00,
2013-05-25 03:34:00,67.1,55.4,30.06,NNE,24,0.0,12.0,66,0.00,,,0.00,Wunderground v.1.13,2013-05-25 08:34:00,
2013-05-25 03:39:00,67.1,54.9,30.06,NNE,24,0.0,12.0,65,0.00,,,0.00,Wunderground v.1.13,2013-05-25 08:39:00,
2013-05-25 03:45:00,67.1,54.9,30.06,NNE,25,0.0,12.0,65,0.00,,,0.00,Wunderground v.1.13,2013-05-25 08:45:00,
2013-05-25 03:50:00,67.1,54.5,30.06,NNE,28,0.0,12.0,64,0.00,,,0.00,Wunderground v.1.13,2013-05-25 08:50:00,
2013-05-25 03:55:00,67.1,54.5,30.06,NE,34,0.0,12.0,64,0.00,,,0.00,Wunderground v.1.13,2013-05-25 08:55:00,
2013-05-25 04:00:00,67.1,54.1,30.06,East,97,0.0,12.0,63,0.00,,,0.00,Wunderground v.1.13,2013-05-25 09:00:00,
2013-05-25 04:06:00,67.1,53.6,30.06,East,79,0.0,12.0,62,0.00,,,0.00,Wunderground v.1.13,2013-05-25 09:06:00,
2013-05-25 04:11:00,67.1,53.6,30.06,SE,145,0.0,12.0,62,0.00,,,0.00,Wunderground v.1.13,2013-05-25 09:11:00,
2013-05-25 04:16:00,67.1,53.6,30.06,East,82,0.0,12.0,62,0.00,,,0.00,Wunderground v.1.13,2013-05-25 09:16:00,
2013-05-25 04:22:00,67.1,53.6,30.07,ESE,119,0.0,12.0,62,0.00,,,0.00,Wunderground v.1.13,2013-05-25 09:22:00,
2013-05-25 04:27:00,66.9,53.5,30.07,ESE,104,0.0,12.0,62,0.00,,,0.00,Wunderground v.1.13,2013-05-25 09:27:00,
2013-05-25 04:32:00,66.9,53.5,30.07,SSE,152,0.0,12.0,62,0.00,,,0.00,Wunderground v.1.13,2013-05-25 09:32:00,
2013-05-25 04:37:00,66.8,53.4,30.07,SSW,212,0.0,12.0,62,0.00,,,0.00,Wunderground v.1.13,2013-05-25 09:37:00,
2013-05-25 04:43:00,66.8,53.4,30.07,ENE,73,0.0,12.0,62,0.00,,,0.00,Wunderground v.1.13,2013-05-25 09:43:00,
2013-05-25 04:48:00,66.6,53.2,30.07,ENE,73,0.0,12.0,62,0.00,,,0.00,Wunderground v.1.13,2013-05-25 09:48:00,
2013-05-25 04:53:00,66.6,52.7,30.08,SE,141,0.0,12.0,61,0.00,,,0.00,Wunderground v.1.13,2013-05-25 09:53:00,
2013-05-25 04:59:00,66.6,53.2,30.08,NE,44,0.0,12.0,62,0.00,,,0.00,Wunderground v.1.13,2013-05-25 09:59:00,
2013-05-25 05:04:00,66.4,52.5,30.08,ENE,58,0.0,12.0,61,0.00,,,0.00,Wunderground v.1.13,2013-05-25 10:04:00,
2013-05-25 05:09:00,66.4,52.5,30.08,East,93,0.0,12.0,61,0.00,,,0.00,Wunderground v.1.13,2013-05-25 10:09:00,
2013-05-25 05:15:00,66.4,52.5,30.08,East,97,0.0,12.0,61,0.00,,,0.00,Wunderground v.1.13,2013-05-25 10:15:00,
2013-05-25 05:20:00,66.4,52.1,30.08,NE,54,0.0,12.0,60,0.00,,,0.00,Wunderground v.1.13,2013-05-25 10:20:00,
2013-05-25 05:25:00,66.4,52.1,30.09,NNE,24,1.0,1.0,60,0.00,,,0.00,Wunderground v.1.13,2013-05-25 10:25:00,
2013-05-25 05:30:00,66.4,52.1,30.09,SSE,162,0.0,12.0,60,0.00,,,0.00,Wunderground v.1.13,2013-05-25 10:30:00,
2013-05-25 05:36:00,66.4,52.1,30.09,ESE,103,0.0,12.0,60,0.00,,,0.00,Wunderground v.1.13,2013-05-25 10:36:00,
2013-05-25 05:41:00,66.4,52.1,30.09,ENE,64,0.0,12.0,60,0.00,,,0.00,Wunderground v.1.13,2013-05-25 10:41:00,
2013-05-25 05:46:00,66.3,52.0,30.09,North,359,0.0,12.0,60,0.00,,,0.00,Wunderground v.1.13,2013-05-25 10:46:00,
2013-05-25 05:52:00,66.3,52.0,30.10,East,100,0.0,12.0,60,0.00,,,0.00,Wunderground v.1.13,2013-05-25 10:52:00,
2013-05-25 05:57:00,66.1,51.8,30.10,SSE,148,0.0,12.0,60,0.00,,,0.00,Wunderground v.1.13,2013-05-25 10:57:00,
2013-05-25 06:02:00,66.0,51.7,30.10,ENE,75,0.0,12.0,60,0.00,,,0.00,Wunderground v.1.13,2013-05-25 11:02:00,
2013-05-25 06:07:00,66.0,51.7,30.10,East,97,0.0,12.0,60,0.00,,,0.00,Wunderground v.1.13,2013-05-25 11:07:00,
2013-05-25 06:13:00,65.8,51.5,30.10,East,97,0.0,12.0,60,0.00,,,0.00,Wunderground v.1.13,2013-05-25 11:13:00,
2013-05-25 06:18:00,65.8,51.5,30.10,ENE,76,0.0,12.0,60,0.00,,,0.00,Wunderground v.1.13,2013-05-25 11:18:00,
2013-05-25 06:23:00,65.6,51.3,30.11,ENE,76,0.0,12.0,60,0.00,,,0.00,Wunderground v.1.13,2013-05-25 11:23:00,
2013-05-25 06:29:00,65.6,51.3,30.11,ENE,76,0.0,12.0,60,0.00,,,0.00,Wunderground v.1.13,2013-05-25 11:29:00,
2013-05-25 06:34:00,65.6,51.3,30.11,ESE,121,0.0,12.0,60,0.00,,,0.00,Wunderground v.1.13,2013-05-25 11:34:00,
2013-05-25 06:39:00,65.5,51.2,30.11,ESE,120,0.0,12.0,60,0.00,,,0.00,Wunderground v.1.13,2013-05-25 11:39:00,
2013-05-25 06:44:00,65.5,51.2,30.11,ESE,116,0.0,12.0,60,0.00,,,0.00,Wunderground v.1.13,2013-05-25 11:44:00,
2013-05-25 06:50:00,65.3,51.1,30.11,SE,133,0.0,12.0,60,0.00,,,0.00,Wunderground v.1.13,2013-05-25 11:50:00,
2013-05-25 06:55:00,65.3,51.5,30.12,SE,134,0.0,12.0,61,0.00,,,0.00,Wunderground v.1.13,2013-05-25 11:55:00,
2013-05-25 07:00:00,65.2,51.0,30.12,ESE,109,0.0,12.0,60,0.00,,,0.00,Wunderground v.1.13,2013-05-25 12:00:00,
2013-05-25 07:06:00,65.2,51.4,30.12,ESE,109,0.0,12.0,61,0.00,,,0.00,Wunderground v.1.13,2013-05-25 12:06:00,
2013-05-25 07:11:00,65.2,51.4,30.12,ESE,109,0.0,12.0,61,0.00,,,0.00,Wunderground v.1.13,2013-05-25 12:11:00,
2013-05-25 07:16:00,65.2,51.4,30.12,ESE,109,0.0,12.0,61,0.00,,,0.00,Wunderground v.1.13,2013-05-25 12:16:00,
2013-05-25 07:21:00,65.3,52.8,30.12,East,80,0.0,12.0,64,0.00,,,0.00,Wunderground v.1.13,2013-05-25 12:21:00,
2013-05-25 07:27:00,65.6,52.2,30.12,East,80,0.0,12.0,62,0.00,,,0.00,Wunderground v.1.13,2013-05-25 12:27:00,
2013-05-25 07:32:00,65.8,52.0,30.12,East,80,0.0,12.0,61,0.00,,,0.00,Wunderground v.1.13,2013-05-25 12:32:00,
2013-05-25 07:37:00,66.0,52.2,30.12,East,80,0.0,12.0,61,0.00,,,0.00,Wunderground v.1.13,2013-05-25 12:37:00,
2013-05-25 07:42:00,66.0,52.2,30.12,NE,56,0.0,12.0,61,0.00,,,0.00,Wunderground v.1.13,2013-05-25 12:42:00,
2013-05-25 07:48:00,66.1,52.3,30.12,NE,56,0.0,12.0,61,0.00,,,0.00,Wunderground v.1.13,2013-05-25 12:48:00,
2013-05-25 07:53:00,66.3,52.4,30.13,NE,56,0.0,12.0,61,0.00,,,0.00,Wunderground v.1.13,2013-05-25 12:53:00,
2013-05-25 07:59:00,66.4,53.0,30.13,NE,56,0.0,12.0,62,0.00,,,0.00,Wunderground v.1.13,2013-05-25 12:59:00,
2013-05-25 08:04:00,66.6,52.7,30.13,NE,56,0.0,12.0,61,0.00,,,0.00,Wunderground v.1.13,2013-05-25 13:04:00,
2013-05-25 08:09:00,66.8,52.9,30.13,South,191,0.0,12.0,61,0.00,,,0.00,Wunderground v.1.13,2013-05-25 13:09:00,
2013-05-25 08:14:00,67.3,53.4,30.13,NE,52,0.0,12.0,61,0.00,,,0.00,Wunderground v.1.13,2013-05-25 13:14:00,
2013-05-25 08:20:00,67.8,53.4,30.13,NNE,14,0.0,12.0,60,0.00,,,0.00,Wunderground v.1.13,2013-05-25 13:20:00,
2013-05-25 08:25:00,68.3,53.9,30.13,NE,41,0.0,12.0,60,0.00,,,0.00,Wunderground v.1.13,2013-05-25 13:25:00,
2013-05-25 08:30:00,68.6,53.2,30.13,NE,41,0.0,12.0,58,0.00,,,0.00,Wunderground v.1.13,2013-05-25 13:30:00,
2013-05-25 08:35:00,69.1,53.2,30.13,NNE,31,0.0,12.0,57,0.00,,,0.00,Wunderground v.1.13,2013-05-25 13:35:00,
2013-05-25 08:41:00,69.4,53.5,30.14,NNE,30,0.0,12.0,57,0.00,,,0.00,Wunderground v.1.13,2013-05-25 13:41:00,
2013-05-25 08:46:00,69.8,53.9,30.14,NE,41,0.0,12.0,57,0.00,,,0.00,Wunderground v.1.13,2013-05-25 13:46:00,
2013-05-25 08:51:00,70.3,53.9,30.14,NNE,32,0.0,12.0,56,0.00,,,0.00,Wunderground v.1.13,2013-05-25 13:51:00,
2013-05-25 08:57:00,70.4,53.0,30.14,NE,52,0.0,12.0,54,0.00,,,0.00,Wunderground v.1.13,2013-05-25 13:57:00,
2013-05-25 09:02:00,70.8,53.8,30.14,SSE,168,0.0,12.0,55,0.00,,,0.00,Wunderground v.1.13,2013-05-25 14:02:00,
2013-05-25 09:07:00,71.1,53.6,30.14,NE,51,0.0,12.0,54,0.00,,,0.00,Wunderground v.1.13,2013-05-25 14:07:00,
2013-05-25 09:12:00,71.3,52.8,30.14,East,83,0.0,12.0,52,0.00,,,0.00,Wunderground v.1.13,2013-05-25 14:12:00,
2013-05-25 09:18:00,71.6,53.0,30.14,NE,51,0.0,12.0,52,0.00,,,0.00,Wunderground v.1.13,2013-05-25 14:18:00,
2013-05-25 09:23:00,71.8,52.7,30.14,NNE,25,1.0,12.0,51,0.00,,,0.00,Wunderground v.1.13,2013-05-25 14:23:00,
2013-05-25 09:28:00,72.0,52.9,30.14,East,82,1.0,12.0,51,0.00,,,0.00,Wunderground v.1.13,2013-05-25 14:28:00,
2013-05-25 09:33:00,72.5,53.3,30.14,East,89,0.0,12.0,51,0.00,,,0.00,Wunderground v.1.13,2013-05-25 14:33:00,
2013-05-25 09:39:00,72.8,53.6,30.14,East,88,0.0,12.0,51,0.00,,,0.00,Wunderground v.1.13,2013-05-25 14:39:00,
2013-05-25 09:44:00,73.0,53.3,30.14,East,92,0.0,12.0,50,0.00,,,0.00,Wunderground v.1.13,2013-05-25 14:44:00,
2013-05-25 09:49:00,73.3,53.5,30.14,NE,37,0.0,12.0,50,0.00,,,0.00,Wunderground v.1.13,2013-05-25 14:49:00,
2013-05-25 09:55:00,73.9,54.1,30.14,NE,52,0.0,12.0,50,0.00,,,0.00,Wunderground v.1.13,2013-05-25 14:55:00,
2013-05-25 10:00:00,74.2,53.8,30.14,ENE,65,0.0,12.0,49,0.00,,,0.00,Wunderground v.1.13,2013-05-25 15:00:00,
2013-05-25 10:05:00,74.4,54.0,30.14,East,82,0.0,12.0,49,0.00,,,0.00,Wunderground v.1.13,2013-05-25 15:05:00,
2013-05-25 10:11:00,74.6,53.6,30.14,NNE,27,1.0,12.0,48,0.00,,,0.00,Wunderground v.1.13,2013-05-25 15:11:00,
2013-05-25 10:16:00,74.6,53.0,30.14,NE,47,2.0,12.0,47,0.00,,,0.00,Wunderground v.1.13,2013-05-25 15:16:00,
2013-05-25 10:21:00,74.9,54.4,30.14,ENE,69,1.0,12.0,49,0.00,,,0.00,Wunderground v.1.13,2013-05-25 15:21:00,
2013-05-25 10:26:00,75.4,54.3,30.14,South,178,0.0,12.0,48,0.00,,,0.00,Wunderground v.1.13,2013-05-25 15:26:00,
2013-05-25 10:32:00,75.8,54.7,30.14,ENE,58,0.0,12.0,48,0.00,,,0.00,Wunderground v.1.13,2013-05-25 15:32:00,
2013-05-25 10:37:00,76.1,55.0,30.13,North,7,1.0,12.0,48,0.00,,,0.00,Wunderground v.1.13,2013-05-25 15:37:00,
2013-05-25 10:42:00,76.3,55.2,30.13,NNE,25,0.0,12.0,48,0.00,,,0.00,Wunderground v.1.13,2013-05-25 15:42:00,
2013-05-25 10:48:00,76.3,54.6,30.13,NNE,18,1.0,12.0,47,0.00,,,0.00,Wunderground v.1.13,2013-05-25 15:48:00,
2013-05-25 10:54:00,76.5,54.2,30.13,ENE,59,1.0,12.0,46,0.00,,,0.00,Wunderground v.1.13,2013-05-25 15:54:00,
2013-05-25 10:59:00,76.7,55.0,30.13,ENE,75,0.0,12.0,47,0.00,,,0.00,Wunderground v.1.13,2013-05-25 15:59:00,
2013-05-25 11:05:00,77.2,55.4,30.13,NE,52,0.0,12.0,47,0.00,,,0.00,Wunderground v.1.13,2013-05-25 16:05:00,
2013-05-25 11:11:00,77.6,55.2,30.13,NNE,17,0.0,12.0,46,0.00,,,0.00,Wunderground v.1.13,2013-05-25 16:11:00,
2013-05-25 11:16:00,77.9,55.5,30.13,ENE,68,0.0,12.0,46,0.00,,,0.00,Wunderground v.1.13,2013-05-25 16:16:00,
2013-05-25 11:21:00,78.1,55.0,30.13,ENE,64,0.0,12.0,45,0.00,,,0.00,Wunderground v.1.13,2013-05-25 16:21:00,
2013-05-25 11:27:00,78.5,54.8,30.13,NE,44,0.0,12.0,44,0.00,,,0.00,Wunderground v.1.13,2013-05-25 16:27:00,
2013-05-25 11:32:00,78.5,54.8,30.13,NE,37,1.0,12.0,44,0.00,,,0.00,Wunderground v.1.13,2013-05-25 16:32:00,
2013-05-25 11:37:00,78.3,54.6,30.13,NE,38,2.0,12.0,44,0.00,,,0.00,Wunderground v.1.13,2013-05-25 16:37:00,
2013-05-25 11:43:00,78.3,54.0,30.13,SSW,205,2.0,12.0,43,0.00,,,0.00,Wunderground v.1.13,2013-05-25 16:43:00,
2013-05-25 11:48:00,78.6,54.9,30.13,NE,44,1.0,12.0,44,0.00,,,0.00,Wunderground v.1.13,2013-05-25 16:48:00,
2013-05-25 11:53:00,79.0,54.6,30.13,ENE,71,0.0,12.0,43,0.00,,,0.00,Wunderground v.1.13,2013-05-25 16:53:00,
2013-05-25 11:58:00,79.4,54.3,30.13,ENE,62,0.0,12.0,42,0.00,,,0.00,Wunderground v.1.13,2013-05-25 16:58:00,
2013-05-25 12:03:00,79.8,54.7,30.13,NE,55,0.0,12.0,42,0.00,,,0.00,Wunderground v.1.13,2013-05-25 17:03:00,
2013-05-25 12:08:00,80.3,55.1,30.12,SE,134,0.0,12.0,42,0.00,,,0.00,Wunderground v.1.13,2013-05-25 17:08:00,
2013-05-25 12:13:00,80.5,54.6,30.12,WNW,302,0.0,12.0,41,0.00,,,0.00,Wunderground v.1.13,2013-05-25 17:13:00,
2013-05-25 12:19:00,80.9,54.3,30.12,NW,304,0.0,12.0,40,0.00,,,0.00,Wunderground v.1.13,2013-05-25 17:19:00,
2013-05-25 12:24:00,81.1,53.8,30.12,South,191,0.0,12.0,39,0.00,,,0.00,Wunderground v.1.13,2013-05-25 17:24:00,
2013-05-25 12:29:00,81.4,54.1,30.12,WSW,247,0.0,12.0,39,0.00,,,0.00,Wunderground v.1.13,2013-05-25 17:29:00,
2013-05-25 12:35:00,81.8,53.7,30.12,ESE,116,0.0,12.0,38,0.00,,,0.00,Wunderground v.1.13,2013-05-25 17:35:00,
2013-05-25 12:40:00,82.2,54.8,30.12,ENE,66,0.0,12.0,39,0.00,,,0.00,Wunderground v.1.13,2013-05-25 17:40:00,
2013-05-25 12:45:00,82.4,54.2,30.12,ENE,65,0.0,12.0,38,0.00,,,0.00,Wunderground v.1.13,2013-05-25 17:45:00,
2013-05-25 12:51:00,82.4,53.5,30.12,SSW,195,0.0,12.0,37,0.00,,,0.00,Wunderground v.1.13,2013-05-25 17:51:00,
2013-05-25 12:56:00,82.6,53.7,30.11,South,184,0.0,12.0,37,0.00,,,0.00,Wunderground v.1.13,2013-05-25 17:56:00,
2013-05-25 13:01:00,82.6,52.9,30.11,ENE,78,0.0,12.0,36,0.00,,,0.00,Wunderground v.1.13,2013-05-25 18:01:00,
2013-05-25 13:06:00,82.6,52.9,30.11,West,270,0.0,12.0,36,0.00,,,0.00,Wunderground v.1.13,2013-05-25 18:06:00,
2013-05-25 13:11:00,82.8,53.1,30.10,WSW,256,0.0,12.0,36,0.00,,,0.00,Wunderground v.1.13,2013-05-25 18:11:00,
2013-05-25 13:16:00,82.8,53.1,30.10,WSW,247,0.0,12.0,36,0.00,,,0.00,Wunderground v.1.13,2013-05-25 18:16:00,
2013-05-25 13:21:00,82.8,52.3,30.10,NNW,332,0.0,12.0,35,0.00,,,0.00,Wunderground v.1.13,2013-05-25 18:21:00,
2013-05-25 13:27:00,83.0,51.7,30.10,North,359,0.0,12.0,34,0.00,,,0.00,Wunderground v.1.13,2013-05-25 18:27:00,
2013-05-25 13:32:00,83.0,51.7,30.10,NW,304,0.0,12.0,34,0.00,,,0.00,Wunderground v.1.13,2013-05-25 18:32:00,
2013-05-25 13:37:00,83.0,50.9,30.10,NW,304,0.0,12.0,33,0.00,,,0.00,Wunderground v.1.13,2013-05-25 18:37:00,
2013-05-25 13:43:00,83.2,51.1,30.10,NW,304,0.0,12.0,33,0.00,,,0.00,Wunderground v.1.13,2013-05-25 18:43:00,
2013-05-25 13:48:00,83.4,50.4,30.10,SSW,208,0.0,12.0,32,0.00,,,0.00,Wunderground v.1.13,2013-05-25 18:48:00,
2013-05-25 13:54:00,83.4,50.4,30.09,West,281,0.0,12.0,32,0.00,,,0.00,Wunderground v.1.13,2013-05-25 18:54:00,
2013-05-25 13:59:00,83.8,49.9,30.09,ENE,64,0.0,12.0,31,0.00,,,0.00,Wunderground v.1.13,2013-05-25 18:59:00,
2013-05-25 14:04:00,84.0,51.8,30.09,SSE,147,0.0,12.0,33,0.00,,,0.00,Wunderground v.1.13,2013-05-25 19:04:00,
2013-05-25 14:10:00,84.1,51.9,30.08,SSE,147,0.0,12.0,33,0.00,,,0.00,Wunderground v.1.13,2013-05-25 19:10:00,
2013-05-25 14:15:00,84.5,52.2,30.08,West,272,0.0,12.0,33,0.00,,,0.00,Wunderground v.1.13,2013-05-25 19:15:00,
2013-05-25 14:20:00,84.5,51.4,30.08,ENE,64,0.0,12.0,32,0.00,,,0.00,Wunderground v.1.13,2013-05-25 19:20:00,
2013-05-25 14:25:00,84.5,51.4,30.08,ENE,75,0.0,12.0,32,0.00,,,0.00,Wunderground v.1.13,2013-05-25 19:25:00,
2013-05-25 14:31:00,84.7,52.4,30.08,East,90,0.0,12.0,33,0.00,,,0.00,Wunderground v.1.13,2013-05-25 19:31:00,
2013-05-25 14:36:00,84.5,50.5,30.08,NE,49,1.0,12.0,31,0.00,,,0.00,Wunderground v.1.13,2013-05-25 19:36:00,
2013-05-25 14:41:00,84.5,52.2,30.07,North,10,1.0,12.0,33,0.00,,,0.00,Wunderground v.1.13,2013-05-25 19:41:00,
2013-05-25 14:46:00,84.5,52.2,30.07,NE,45,1.0,12.0,33,0.00,,,0.00,Wunderground v.1.13,2013-05-25 19:46:00,
2013-05-25 14:52:00,84.7,53.2,30.07,NE,45,0.0,12.0,34,0.00,,,0.00,Wunderground v.1.13,2013-05-25 19:52:00,
2013-05-25 14:57:00,84.7,50.7,30.07,NE,45,0.0,12.0,31,0.00,,,0.00,Wunderground v.1.13,2013-05-25 19:57:00,
2013-05-25 15:02:00,84.9,51.7,30.07,NNW,340,0.0,12.0,32,0.00,,,0.00,Wunderground v.1.13,2013-05-25 20:02:00,
2013-05-25 15:07:00,85.3,52.9,30.06,ENE,68,0.0,12.0,33,0.00,,,0.00,Wunderground v.1.13,2013-05-25 20:07:00,
2013-05-25 15:13:00,85.5,53.9,30.06,ENE,68,0.0,12.0,34,0.00,,,0.00,Wunderground v.1.13,2013-05-25 20:13:00,
2013-05-25 15:18:00,85.5,53.1,30.06,ENE,68,0.0,12.0,33,0.00,,,0.00,Wunderground v.1.13,2013-05-25 20:18:00,
2013-05-25 15:23:00,85.7,54.9,30.06,ENE,68,0.0,12.0,35,0.00,,,0.00,Wunderground v.1.13,2013-05-25 20:23:00,
2013-05-25 15:28:00,85.9,54.3,30.06,ENE,69,0.0,12.0,34,0.00,,,0.00,Wunderground v.1.13,2013-05-25 20:28:00,
2013-05-25 15:34:00,86.1,56.8,30.06,SSE,151,0.0,12.0,37,0.00,,,0.00,Wunderground v.1.13,2013-05-25 20:34:00,
2013-05-25 15:39:00,86.5,57.1,30.06,ENE,65,0.0,12.0,37,0.00,,,0.00,Wunderground v.1.13,2013-05-25 20:39:00,
2013-05-25 15:44:00,86.5,57.1,30.06,NE,41,0.0,12.0,37,0.00,,,0.00,Wunderground v.1.13,2013-05-25 20:44:00,
2013-05-25 15:49:00,86.5,57.1,30.06,NE,41,0.0,12.0,37,0.00,,,0.00,Wunderground v.1.13,2013-05-25 20:49:00,
2013-05-25 15:54:00,86.3,57.7,30.06,NE,41,0.0,12.0,38,0.00,,,0.00,Wunderground v.1.13,2013-05-25 20:54:00,
2013-05-25 15:59:00,86.1,59.0,30.06,NE,41,0.0,12.0,40,0.00,,,0.00,Wunderground v.1.13,2013-05-25 20:59:00,
2013-05-25 16:05:00,85.9,59.5,30.06,SSW,196,0.0,12.0,41,0.00,,,0.00,Wunderground v.1.13,2013-05-25 21:05:00,
2013-05-25 16:10:00,85.9,58.8,30.06,NE,48,0.0,12.0,40,0.00,,,0.00,Wunderground v.1.13,2013-05-25 21:10:00,
2013-05-25 16:15:00,85.7,60.0,30.06,NE,48,0.0,12.0,42,0.00,,,0.00,Wunderground v.1.13,2013-05-25 21:15:00,
2013-05-25 16:21:00,85.5,59.8,30.06,NE,48,0.0,12.0,42,0.00,,,0.00,Wunderground v.1.13,2013-05-25 21:21:00,
2013-05-25 16:27:00,85.3,60.3,30.06,ESE,114,0.0,12.0,43,0.00,,,0.00,Wunderground v.1.13,2013-05-25 21:27:00,
2013-05-25 16:32:00,84.9,61.2,30.06,East,83,0.0,12.0,45,0.00,,,0.00,Wunderground v.1.13,2013-05-25 21:32:00,
2013-05-25 16:38:00,84.9,61.8,30.05,SE,137,0.0,12.0,46,0.00,,,0.00,Wunderground v.1.13,2013-05-25 21:38:00,
2013-05-25 16:43:00,84.7,62.2,30.05,ENE,73,0.0,12.0,47,0.00,,,0.00,Wunderground v.1.13,2013-05-25 21:43:00,
2013-05-25 16:48:00,84.5,62.1,30.05,ESE,106,0.0,12.0,47,0.00,,,0.00,Wunderground v.1.13,2013-05-25 21:48:00,
2013-05-25 16:54:00,84.3,61.3,30.05,SE,144,0.0,12.0,46,0.00,,,0.00,Wunderground v.1.13,2013-05-25 21:54:00,
2013-05-25 16:59:00,84.1,62.3,30.05,SE,144,0.0,12.0,48,0.00,,,0.00,Wunderground v.1.13,2013-05-25 21:59:00,
2013-05-25 17:04:00,84.0,61.6,30.05,ESE,116,0.0,12.0,47,0.00,,,0.00,Wunderground v.1.13,2013-05-25 22:04:00,
2013-05-25 17:10:00,83.8,60.8,30.06,SW,224,0.0,12.0,46,0.00,,,0.00,Wunderground v.1.13,2013-05-25 22:10:00,
2013-05-25 17:15:00,83.8,60.8,30.06,South,176,0.0,12.0,46,0.00,,,0.00,Wunderground v.1.13,2013-05-25 22:15:00,
2013-05-25 17:20:00,83.8,60.8,30.06,West,277,0.0,12.0,46,0.00,,,0.00,Wunderground v.1.13,2013-05-25 22:20:00,
2013-05-25 17:25:00,84.0,61.0,30.06,ENE,75,0.0,12.0,46,0.00,,,0.00,Wunderground v.1.13,2013-05-25 22:25:00,
2013-05-25 17:31:00,84.1,61.1,30.06,SSW,196,0.0,12.0,46,0.00,,,0.00,Wunderground v.1.13,2013-05-25 22:31:00,
2013-05-25 17:36:00,84.1,61.7,30.06,SSW,196,0.0,12.0,47,0.00,,,0.00,Wunderground v.1.13,2013-05-25 22:36:00,
2013-05-25 17:41:00,84.1,61.7,30.06,SW,217,0.0,12.0,47,0.00,,,0.00,Wunderground v.1.13,2013-05-25 22:41:00,
2013-05-25 17:46:00,84.1,60.5,30.06,West,281,0.0,12.0,45,0.00,,,0.00,Wunderground v.1.13,2013-05-25 22:46:00,
2013-05-25 17:52:00,84.0,61.0,30.06,SW,222,0.0,12.0,46,0.00,,,0.00,Wunderground v.1.13,2013-05-25 22:52:00,
2013-05-25 17:57:00,83.8,60.8,30.06,SW,222,0.0,12.0,46,0.00,,,0.00,Wunderground v.1.13,2013-05-25 22:57:00,
2013-05-25 18:02:00,83.8,62.0,30.06,SW,222,0.0,12.0,48,0.00,,,0.00,Wunderground v.1.13,2013-05-25 23:02:00,
2013-05-25 18:08:00,83.6,61.8,30.06,SW,222,0.0,12.0,48,0.00,,,0.00,Wunderground v.1.13,2013-05-25 23:08:00,
2013-05-25 18:13:00,83.4,62.2,30.06,SW,222,0.0,12.0,49,0.00,,,0.00,Wunderground v.1.13,2013-05-25 23:13:00,
2013-05-25 18:18:00,83.2,62.1,30.06,SW,222,0.0,12.0,49,0.00,,,0.00,Wunderground v.1.13,2013-05-25 23:18:00,
2013-05-25 18:24:00,83.2,62.6,30.06,SW,222,0.0,12.0,50,0.00,,,0.00,Wunderground v.1.13,2013-05-25 23:24:00,
2013-05-25 18:29:00,83.0,61.9,30.06,SW,222,0.0,12.0,49,0.00,,,0.00,Wunderground v.1.13,2013-05-25 23:29:00,
2013-05-25 18:34:00,83.0,62.4,30.06,SW,222,0.0,12.0,50,0.00,,,0.00,Wunderground v.1.13,2013-05-25 23:34:00,
2013-05-25 18:39:00,83.0,61.9,30.05,SW,222,0.0,12.0,49,0.00,,,0.00,Wunderground v.1.13,2013-05-25 23:39:00,
2013-05-25 18:45:00,82.8,61.7,30.05,West,264,0.0,12.0,49,0.00,,,0.00,Wunderground v.1.13,2013-05-25 23:45:00,
2013-05-25 18:50:00,82.8,61.7,30.05,SW,216,0.0,12.0,49,0.00,,,0.00,Wunderground v.1.13,2013-05-25 23:50:00,
2013-05-25 18:55:00,83.2,62.1,30.05,SW,216,0.0,12.0,49,0.00,,,0.00,Wunderground v.1.13,2013-05-25 23:55:00,
2013-05-25 19:01:00,83.0,60.7,30.05,SW,216,0.0,12.0,47,0.00,,,0.00,Wunderground v.1.13,2013-05-26 00:01:00,
2013-05-25 19:06:00,83.2,61.5,30.05,SW,227,0.0,12.0,48,0.00,,,0.00,Wunderground v.1.13,2013-05-26 00:06:00,
2013-05-25 19:11:00,83.0,61.3,30.05,SW,227,0.0,12.0,48,0.00,,,0.00,Wunderground v.1.13,2013-05-26 00:11:00,
2013-05-25 19:16:00,82.8,61.1,30.05,SW,227,0.0,12.0,48,0.00,,,0.00,Wunderground v.1.13,2013-05-26 00:16:00,
2013-05-25 19:22:00,82.2,60.6,30.04,SW,227,0.0,12.0,48,0.00,,,0.00,Wunderground v.1.13,2013-05-26 00:22:00,
2013-05-25 19:27:00,81.4,60.4,30.04,SW,227,0.0,12.0,49,0.00,,,0.00,Wunderground v.1.13,2013-05-26 00:27:00,
2013-05-25 19:32:00,80.7,60.3,30.04,SW,227,0.0,12.0,50,0.00,,,0.00,Wunderground v.1.13,2013-05-26 00:32:00,
2013-05-25 19:38:00,80.3,60.0,30.04,SW,227,0.0,12.0,50,0.00,,,0.00,Wunderground v.1.13,2013-05-26 00:38:00,
2013-05-25 19:43:00,79.2,60.1,30.04,SW,227,0.0,12.0,52,0.00,,,0.00,Wunderground v.1.13,2013-05-26 00:43:00,
2013-05-25 19:48:00,78.5,59.9,30.04,SW,227,0.0,12.0,53,0.00,,,0.00,Wunderground v.1.13,2013-05-26 00:48:00,
2013-05-25 19:53:00,77.7,59.7,30.04,SW,227,0.0,12.0,54,0.00,,,0.00,Wunderground v.1.13,2013-05-26 00:53:00,
2013-05-25 19:59:00,77.0,59.6,30.04,SW,227,0.0,12.0,55,0.00,,,0.00,Wunderground v.1.13,2013-05-26 00:59:00,
2013-05-25 20:04:00,76.3,59.4,30.04,SW,227,0.0,12.0,56,0.00,,,0.00,Wunderground v.1.13,2013-05-26 01:04:00,
2013-05-25 20:09:00,75.8,59.5,30.04,SW,227,0.0,12.0,57,0.00,,,0.00,Wunderground v.1.13,2013-05-26 01:09:00,
2013-05-25 20:15:00,75.3,59.5,30.04,SW,227,0.0,12.0,58,0.00,,,0.00,Wunderground v.1.13,2013-05-26 01:15:00,
2013-05-25 20:20:00,74.7,59.4,30.04,SW,227,0.0,12.0,59,0.00,,,0.00,Wunderground v.1.13,2013-05-26 01:20:00,
2013-05-25 20:25:00,74.6,59.3,30.05,SW,227,0.0,12.0,59,0.00,,,0.00,Wunderground v.1.13,2013-05-26 01:25:00,
2013-05-25 20:30:00,74.2,59.4,30.05,SW,227,0.0,12.0,60,0.00,,,0.00,Wunderground v.1.13,2013-05-26 01:30:00,
2013-05-25 20:36:00,73.7,59.9,30.05,SW,227,0.0,12.0,62,0.00,,,0.00,Wunderground v.1.13,2013-05-26 01:36:00,
2013-05-25 20:41:00,73.5,60.1,30.05,SW,227,0.0,12.0,63,0.00,,,0.00,Wunderground v.1.13,2013-05-26 01:41:00,
2013-05-25 20:46:00,73.2,60.3,30.05,SW,227,0.0,12.0,64,0.00,,,0.00,Wunderground v.1.13,2013-05-26 01:46:00,
2013-05-25 20:52:00,72.8,60.3,30.06,SW,227,0.0,12.0,65,0.00,,,0.00,Wunderground v.1.13,2013-05-26 01:52:00,
2013-05-25 20:57:00,72.7,60.7,30.06,SW,227,0.0,12.0,66,0.00,,,0.00,Wunderground v.1.13,2013-05-26 01:57:00,
2013-05-25 21:02:00,72.5,60.9,30.06,SW,227,0.0,12.0,67,0.00,,,0.00,Wunderground v.1.13,2013-05-26 02:02:00,
2013-05-25 21:07:00,72.1,60.5,30.06,SW,227,0.0,12.0,67,0.00,,,0.00,Wunderground v.1.13,2013-05-26 02:07:00,
2013-05-25 21:13:00,71.8,60.7,30.06,SW,227,0.0,12.0,68,0.00,,,0.00,Wunderground v.1.13,2013-05-26 02:13:00,
2013-05-25 21:18:00,71.6,60.5,30.06,SW,227,0.0,12.0,68,0.00,,,0.00,Wunderground v.1.13,2013-05-26 02:18:00,
2013-05-25 21:23:00,71.3,60.2,30.06,SW,227,0.0,12.0,68,0.00,,,0.00,Wunderground v.1.13,2013-05-26 02:23:00,
2013-05-25 21:28:00,71.1,60.8,30.06,SW,227,0.0,12.0,70,0.00,,,0.00,Wunderground v.1.13,2013-05-26 02:28:00,
2013-05-25 21:33:00,71.1,61.2,30.06,SW,227,0.0,12.0,71,0.00,,,0.00,Wunderground v.1.13,2013-05-26 02:33:00,
2013-05-25 21:39:00,70.9,61.0,30.07,SW,227,0.0,12.0,71,0.00,,,0.00,Wunderground v.1.13,2013-05-26 02:39:00,
2013-05-25 21:44:00,70.9,61.0,30.07,SW,227,0.0,12.0,71,0.00,,,0.00,Wunderground v.1.13,2013-05-26 02:44:00,
2013-05-25 21:49:00,70.8,61.3,30.07,SW,227,0.0,12.0,72,0.00,,,0.00,Wunderground v.1.13,2013-05-26 02:49:00,
2013-05-25 21:54:00,70.8,61.7,30.07,SW,227,0.0,12.0,73,0.00,,,0.00,Wunderground v.1.13,2013-05-26 02:54:00,
2013-05-25 21:59:00,70.6,61.5,30.07,SW,227,0.0,12.0,73,0.00,,,0.00,Wunderground v.1.13,2013-05-26 02:59:00,
2013-05-25 22:05:00,70.4,61.3,30.07,SW,227,0.0,12.0,73,0.00,,,0.00,Wunderground v.1.13,2013-05-26 03:05:00,
2013-05-25 22:10:00,70.4,61.7,30.07,SW,227,0.0,12.0,74,0.00,,,0.00,Wunderground v.1.13,2013-05-26 03:10:00,
2013-05-25 22:15:00,70.1,61.4,30.07,SW,227,0.0,12.0,74,0.00,,,0.00,Wunderground v.1.13,2013-05-26 03:15:00,
2013-05-25 22:20:00,69.9,61.2,30.07,SW,227,0.0,12.0,74,0.00,,,0.00,Wunderground v.1.13,2013-05-26 03:20:00,
2013-05-25 22:25:00,69.6,60.9,30.08,SW,227,0.0,12.0,74,0.00,,,0.00,Wunderground v.1.13,2013-05-26 03:25:00,
2013-05-25 22:31:00,69.4,60.8,30.08,SW,227,0.0,12.0,74,0.00,,,0.00,Wunderground v.1.13,2013-05-26 03:31:00,
2013-05-25 22:36:00,69.3,60.7,30.08,SW,227,0.0,12.0,74,0.00,,,0.00,Wunderground v.1.13,2013-05-26 03:36:00,
2013-05-25 22:41:00,69.1,60.5,30.07,SW,227,0.0,12.0,74,0.00,,,0.00,Wunderground v.1.13,2013-05-26 03:41:00,
2013-05-25 22:46:00,68.9,60.3,30.07,SW,227,0.0,12.0,74,0.00,,,0.00,Wunderground v.1.13,2013-05-26 03:46:00,
2013-05-25 22:51:00,68.9,60.6,30.07,SW,227,0.0,12.0,75,0.00,,,0.00,Wunderground v.1.13,2013-05-26 03:51:00,
2013-05-25 22:57:00,68.8,60.9,30.08,SW,227,0.0,12.0,76,0.00,,,0.00,Wunderground v.1.13,2013-05-26 03:57:00,
2013-05-25 23:01:00,68.6,60.7,30.08,SW,227,0.0,12.0,76,0.00,,,0.00,Wunderground v.1.13,2013-05-26 04:01:00,
2013-05-25 23:02:00,68.6,61.1,30.08,SW,227,0.0,12.0,77,0.00,,,0.00,Wunderground v.1.13,2013-05-26 04:02:00,
2013-05-25 23:03:00,68.6,61.1,30.08,SW,227,0.0,12.0,77,0.00,,,0.00,Wunderground v.1.13,2013-05-26 04:03:00,
2013-05-25 23:04:00,68.6,61.1,30.08,SW,227,0.0,12.0,77,0.00,,,0.00,Wunderground v.1.13,2013-05-26 04:04:00,
2013-05-25 23:10:00,68.4,60.9,30.07,SW,227,0.0,12.0,77,0.00,,,0.00,Wunderground v.1.13,2013-05-26 04:10:00,
2013-05-25 23:14:00,68.1,61.0,30.07,SW,227,0.0,12.0,78,0.00,,,0.00,Wunderground v.1.13,2013-05-26 04:14:00,
2013-05-25 23:19:00,67.9,60.8,30.07,SW,227,0.0,12.0,78,0.00,,,0.00,Wunderground v.1.13,2013-05-26 04:19:00,
2013-05-25 23:24:00,67.8,60.7,30.07,SW,227,0.0,12.0,78,0.00,,,0.00,Wunderground v.1.13,2013-05-26 04:24:00,
2013-05-25 23:29:00,67.6,60.5,30.07,SW,227,0.0,12.0,78,0.00,,,0.00,Wunderground v.1.13,2013-05-26 04:29:00,
2013-05-25 23:34:00,67.4,60.3,30.07,SW,227,0.0,12.0,78,0.00,,,0.00,Wunderground v.1.13,2013-05-26 04:34:00,
2013-05-25 23:39:00,67.3,60.2,30.07,SW,227,0.0,12.0,78,0.00,,,0.00,Wunderground v.1.13,2013-05-26 04:39:00,
2013-05-25 23:45:00,67.3,60.6,30.07,SW,227,0.0,12.0,79,0.00,,,0.00,Wunderground v.1.13,2013-05-26 04:45:00,
2013-05-25 23:50:00,67.1,60.4,30.07,SW,227,0.0,12.0,79,0.00,,,0.00,Wunderground v.1.13,2013-05-26 04:50:00,
2013-05-25 23:55:00,67.1,60.4,30.07,SW,227,0.0,12.0,79,0.00,,,0.00,Wunderground v.1.13,2013-05-26 04:55:00,